Location: The Stocker AstroScience Center
(25.7579°N, 80.3725°W)
Time: 14:43:28
(UTC-04:00)

ISS - All Passes

Search period start: 27 July 2017 00:00
Search period end: 06 August 2017 00:00
Orbit: 400 x 408 km, 51.6° (Epoch: 28 July)

Date Brightness Start Highest point End Pass type
(mag) Time Alt. Az. Time Alt. Az. Time Alt. Az.
27 Jul - 03:29:04 10° NNE 03:30:21 12° NE 03:31:38 10° ENE night (unlit)
27 Jul - 05:03:51 10° WNW 05:06:56 40° SW 05:10:00 10° SSE night (unlit)
27 Jul - 18:26:32 10° SSE 18:28:13 14° SE 18:29:56 10° E daylight
27 Jul - 20:01:37 10° WSW 20:04:27 28° NW 20:07:18 10° NNE daylight
28 Jul - 04:11:28 10° NW 04:14:42 76° NE 04:17:57 10° SE night (unlit)
28 Jul - 19:08:55 10° SW 19:12:08 68° NW 19:15:22 10° NE daylight
29 Jul - 03:19:29 10° NNW 03:22:24 30° NE 03:25:19 10° ESE night (unlit)
29 Jul - 04:57:09 10° W 04:58:36 12° SW 05:00:04 10° SSW night (unlit)
29 Jul - 18:16:47 10° SSW 18:19:53 44° SE 18:23:00 10° NE daylight
29 Jul - 19:55:32 10° NW 19:56:30 11° NW 19:57:28 10° NNW daylight
30 Jul - 02:28:02 10° N 02:29:58 15° NE 02:31:55 10° ENE night (unlit)
30 Jul - 04:03:35 10° WNW 04:06:27 29° SW 04:09:19 10° S night (unlit)
30 Jul - 17:25:23 10° S 17:27:42 18° SE 17:30:00 10° E daylight
30 Jul - 19:01:27 10° W 19:04:01 21° NW 19:06:36 10° N daylight
31 Jul - 03:10:58 10° NW 03:14:13 77° SW 03:17:28 10° SE night (unlit)
31 Jul - 18:08:29 10° WSW 18:11:38 48° NW 18:14:47 10° NNE daylight
01 Aug - 02:18:49 10° NNW 02:21:54 40° NE 02:24:59 10° ESE night (unlit)
01 Aug - 17:16:06 10° SSW 17:19:20 62° SE 17:22:32 10° NE daylight
02 Aug - 01:27:05 10° N 01:29:28 19° NE 01:31:51 10° E night (unlit)
02 Aug - 03:03:17 10° WNW 03:05:51 21° SW 03:08:24 10° S night (unlit)
02 Aug - 16:24:23 10° S 16:27:04 24° SE 16:29:46 10° ENE daylight
02 Aug - 18:01:16 10° W 18:03:29 17° NW 18:05:43 10° N daylight
03 Aug - 02:10:26 10° NW 02:13:36 54° SW 02:16:46 10° SSE night (unlit)
03 Aug - 15:34:15 10° SE 15:34:52 10° SE 15:35:29 10° ESE daylight
03 Aug - 17:08:00 10° WSW 17:11:01 35° NW 17:14:03 10° NNE daylight
04 Aug - 01:18:04 10° NNW 01:21:16 55° NE 01:24:27 10° SE night (unlit)
04 Aug - 16:15:24 10° SW 16:18:38 88° SE 16:21:54 10° NE daylight
05 Aug - 00:26:09 10° NNW 00:28:51 24° NE 00:31:32 10° E night (unlit)
05 Aug - 02:03:01 10° W 02:05:07 16° SW 02:07:13 10° SSW night (unlit)
05 Aug - 15:23:22 10° SSW 15:26:20 32° SE 15:29:17 10° ENE daylight
05 Aug - 17:01:06 10° WNW 17:02:50 14° NW 17:04:34 10° N daylight
05 Aug - 23:34:58 10° NNE 23:36:17 12° NE 23:37:38 10° ENE night (unlit)
